Location: Unspecified
(35.7250°N, 0.0000°E)
Time: 14:41:01
(UTC+00:00)

Vanguard 2 - Pass Details

Date: 30 June 2019
Orbit: 553 x 2938 km, 32.9° (Epoch: 20 August)

Event Time Altitude Azimuth Distance (km) Brightness Sun altitude
Exits shadow 03:53:59 - 195° (SSW) 2,216 9.4 -9.8°
Reaches altitude 10° 03:55:08 10° 183° (S) 1,918 9.2 -9.6°
Maximum altitude 03:57:08 13° 154° (SSE) 1,654 9.1 -9.3°
Drops below altitude 10° 03:59:03 10° 125° (SE) 1,819 9.7 -9.0°
Sets 04:02:19 0° 96° (E) 2,753 11.2 -8.4°
